Date String (YYYY-MM-DD hh:mm:ss) UTC,Instrument flags,Ambient pressure (hPa),Sample flow (lpm),Bypass flow (lpm),Sample temperature (°C),Ambient temperature (°C),ASC tube jacket temperature (°C),LED temperature (°C),Box temperature (°C),Sample RH (%),Span deviation,Mass concentration (μg/m³),Mass concentration (μg/m³),Mass concentration (μg/m³)
DateTimeUTC,F1_M11,P_M11,Q1_M11,Q2_M11,T1_M11,T2_M11,T3_M11,T4_M11,T5_M11,U1_M11,ZSPAN_M11,X0_M11,X2_M11,X1_M11
2022-06-04 03:00:00,,0822.2,5.00,0.00,29.5,28.4,00.0,38.4,31.4,21.8,0000.0,0006.98,0003.28,0002.55
2022-06-04 03:01:00,,0822.3,5.00,0.00,29.5,28.4,00.0,38.4,31.5,21.8,0000.0,0006.79,0003.29,0002.56
2022-06-04 03:02:00,,0822.3,4.99,0.00,29.6,28.5,00.0,38.4,31.5,21.9,0000.0,0006.76,0003.30,0002.56
2022-06-04 03:03:00,,0822.3,5.00,0.00,29.6,28.6,00.0,38.4,31.5,21.9,0000.0,0006.77,0003.34,0002.58
2022-06-04 03:04:00,,0822.3,5.00,0.00,29.6,28.7,00.0,38.4,31.6,21.8,0000.0,0006.77,0003.34,0002.58
2022-06-04 03:05:00,,0822.3,4.98,0.00,29.7,28.7,00.0,38.5,31.6,21.8,0000.0,0006.55,0003.32,0002.57
2022-06-04 03:06:00,,0822.3,4.99,0.00,29.7,28.8,00.0,38.5,31.6,21.7,0000.0,0006.21,0003.28,0002.57
2022-06-04 03:07:00,,0822.3,5.00,0.00,29.7,28.8,00.0,38.5,31.7,21.7,0000.0,0006.78,0003.31,0002.57
2022-06-04 03:08:00,,0822.4,4.99,0.00,29.7,28.9,00.0,38.5,31.7,21.7,0000.0,0006.93,0003.31,0002.57
2022-06-04 03:09:00,,0822.3,5.00,0.00,29.8,28.9,00.0,38.5,31.7,21.7,0000.0,0006.82,0003.31,0002.58
2022-06-04 03:10:00,,0822.3,5.01,0.00,29.8,29.0,00.0,38.6,31.7,21.7,0000.0,0006.23,0003.33,0002.59
2022-06-04 03:11:00,,0822.3,5.00,0.00,29.8,29.0,00.0,38.6,31.8,21.6,0000.0,0006.32,0003.33,0002.60
2022-06-04 03:12:00,,0822.3,4.99,0.00,29.8,29.0,00.0,38.6,31.8,21.6,0000.0,0006.33,0003.30,0002.60
2022-06-04 03:13:00,,0822.4,5.00,0.00,29.9,29.1,00.0,38.6,31.8,21.5,0000.0,0006.85,0003.29,0002.61
2022-06-04 03:14:00,,0822.5,4.99,0.00,29.9,28.9,00.0,38.6,31.8,21.2,0000.0,0006.75,0003.28,0002.62
2022-06-04 03:15:00,,0822.5,5.02,0.00,29.8,28.1,00.0,38.6,31.6,21.2,0000.0,0006.64,0003.25,0002.62
2022-06-04 03:16:00,,0822.4,4.99,0.00,29.8,27.4,00.0,38.5,31.4,21.3,0000.0,0006.72,0003.26,0002.62
2022-06-04 03:17:00,,0822.4,5.01,0.00,29.7,27.3,00.0,38.5,31.3,21.2,0000.0,0006.72,0003.26,0002.62
2022-06-04 03:18:00,,0822.5,5.00,0.00,29.6,27.4,00.0,38.5,31.3,21.3,0000.0,0006.41,0003.25,0002.62
2022-06-04 03:19:00,,0822.5,5.00,0.00,29.5,27.5,00.0,38.5,31.3,21.2,0000.0,0006.22,0003.24,0002.60
2022-06-04 03:20:00,,0822.5,4.99,0.00,29.5,27.6,00.0,38.5,31.3,21.2,0000.0,0006.36,0003.22,0002.57
2022-06-04 03:21:00,,0822.5,4.99,0.00,29.5,27.8,00.0,38.4,31.3,21.2,0000.0,0006.22,0003.18,0002.54
2022-06-04 03:22:00,,0822.5,5.01,0.00,29.5,27.9,00.0,38.4,31.3,21.2,0000.0,0006.13,0003.17,0002.52
2022-06-04 03:23:00,,0822.5,5.00,0.00,29.5,28.1,00.0,38.4,31.4,21.3,0000.0,0007.28,0003.17,0002.51
2022-06-04 03:24:00,,0822.5,5.01,0.00,29.5,28.2,00.0,38.4,31.4,21.5,0000.0,0007.98,0003.17,0002.50
2022-06-04 03:25:00,,0822.5,4.99,0.00,29.5,28.3,00.0,38.4,31.4,21.3,0000.0,0008.33,0003.18,0002.49
2022-06-04 03:26:00,,0822.5,5.00,0.00,29.6,28.4,00.0,38.4,31.4,21.3,0000.0,0008.55,0003.22,0002.48
2022-06-04 03:27:00,,0822.5,5.00,0.00,29.6,28.4,00.0,38.4,31.5,21.3,0000.0,0008.67,0003.25,0002.48
2022-06-04 03:28:00,,0822.5,5.00,0.00,29.6,28.5,00.0,38.4,31.5,22.1,0000.0,0008.80,0003.32,0002.55
2022-06-04 03:29:00,,0822.5,4.99,0.00,29.6,28.5,00.0,38.5,31.5,22.2,0000.0,0008.76,0003.37,0002.66
2022-06-04 03:30:00,,0822.5,5.01,0.00,29.6,28.6,00.0,38.5,31.5,21.9,0000.0,0009.41,0003.44,0002.75
2022-06-04 03:31:00,,0822.5,5.00,0.00,29.7,28.6,00.0,38.5,31.6,21.9,0000.0,0010.31,0003.50,0002.83
2022-06-04 03:32:00,,0822.6,5.00,0.00,29.7,28.7,00.0,38.5,31.6,21.8,0000.0,0010.60,0003.59,0002.92
2022-06-04 03:33:00,,0822.5,5.01,0.00,29.7,28.7,00.0,38.5,31.6,22.1,0000.0,0010.75,0003.69,0003.04
2022-06-04 03:34:00,,0822.5,4.99,0.00,29.7,28.8,00.0,38.5,31.6,22.4,0000.0,0010.44,0003.79,0003.16
2022-06-04 03:35:00,,0822.5,4.99,0.00,29.7,28.8,00.0,38.5,31.7,22.7,0000.0,0009.57,0003.89,0003.26
2022-06-04 03:36:00,,0822.6,5.00,0.00,29.8,28.8,00.0,38.6,31.7,22.7,0000.0,0009.46,0003.96,0003.33
2022-06-04 03:37:00,,0822.6,5.01,0.00,29.8,28.4,00.0,37.5,30.4,22.6,0000.0,0010.05,0004.09,0003.43
2022-06-04 03:38:00,,0822.6,4.99,0.00,29.8,28.3,00.0,37.0,29.8,22.5,0000.0,0010.36,0004.17,0003.51
2022-06-04 03:39:00,,0822.6,4.98,0.00,29.8,28.9,00.0,38.6,31.7,22.3,0000.0,0010.81,0004.24,0003.58
2022-06-04 03:40:00,,0822.7,5.01,0.00,29.8,28.9,00.0,38.6,31.8,22.5,0000.0,0010.92,0004.28,0003.59
2022-06-04 03:41:00,,0822.7,5.00,0.00,29.8,28.9,00.0,38.6,31.8,22.5,0000.0,0010.94,0004.33,0003.62
2022-06-04 03:42:00,,0822.7,5.00,0.00,29.9,28.9,00.0,38.7,31.7,22.4,0000.0,0010.47,0004.36,0003.64
2022-06-04 03:43:00,,0822.7,4.99,0.00,29.9,28.9,00.0,38.7,31.8,22.5,0000.0,0009.92,0004.36,0003.67
2022-06-04 03:44:00,,0822.7,4.99,0.00,29.9,29.0,00.0,38.7,31.8,22.3,0000.0,0009.82,0004.33,0003.69
2022-06-04 03:45:00,,0822.7,5.00,0.00,29.9,29.0,00.0,38.7,31.8,22.3,0000.0,0009.98,0004.33,0003.69
2022-06-04 03:46:00,,0822.7,5.01,0.00,29.9,29.0,00.0,38.7,31.9,22.6,0000.0,0010.25,0004.32,0003.67
2022-06-04 03:47:00,,0822.7,4.99,0.00,29.9,28.5,00.0,38.7,31.7,22.7,0000.0,0010.79,0004.32,0003.67
2022-06-04 03:48:00,,0822.7,5.00,0.00,29.8,27.6,00.0,38.6,31.5,22.8,0000.0,0010.02,0004.30,0003.65
2022-06-04 03:49:00,,0822.7,5.01,0.00,29.8,27.2,00.0,38.6,31.4,22.9,0000.0,0009.72,0004.29,0003.64
2022-06-04 03:50:00,,0822.7,5.00,0.00,29.7,27.2,00.0,38.6,31.3,23.0,0000.0,0009.37,0004.29,0003.65
2022-06-04 03:51:00,,0822.7,5.00,0.00,29.6,27.3,00.0,38.5,31.2,23.1,0000.0,0009.26,0004.25,0003.65
2022-06-04 03:52:00,,0822.7,4.99,0.00,29.5,27.4,00.0,38.5,31.3,23.2,0000.0,0009.54,0004.27,0003.65
2022-06-04 03:53:00,,0822.8,5.00,0.00,29.5,27.5,00.0,38.5,31.3,23.2,0000.0,0010.03,0004.28,0003.66
2022-06-04 03:54:00,,0822.8,5.00,0.00,29.5,27.7,00.0,38.5,31.3,23.2,0000.0,0010.32,0004.32,0003.67
2022-06-04 03:55:00,,0822.8,5.00,0.00,29.5,27.8,00.0,38.5,31.3,23.3,0000.0,0010.44,0004.37,0003.68
2022-06-04 03:56:00,,0822.9,5.00,0.00,29.5,27.9,00.0,38.5,31.3,23.4,0000.0,0010.60,0004.38,0003.68
2022-06-04 03:57:00,,0823.0,4.99,0.00,29.5,28.0,00.0,38.4,31.3,23.4,0000.0,0010.62,0004.37,0003.68
2022-06-04 03:58:00,,0822.9,4.99,0.00,29.5,28.1,00.0,38.4,31.4,23.4,0000.0,0010.29,0004.38,0003.68
2022-06-04 03:59:00,,0822.9,5.01,0.00,29.5,28.2,00.0,38.4,31.4,23.5,0000.0,0010.30,0004.37,0003.69
